Meteo18 Weather Cam more information Meteo18 Weather Cam


Thunder radar more information blitzortung!


Rain radar more information rain snow radar



Select another period ( hide this area )

Units Period Custom range Directly to
Metric English Both
Daily Weekly Monthly Yearly
use both date-selectors for a custom range
previous Day
With this date

WeatherUnderground graphs for this period ( click here )


Daily Summary for Saturday 22 September 2018
Time Temp. ( °C ) Dew pt. ( °C ) Wind ( km/h ) from Gust ( km/h ) Pressure ( hPa ) Humid.( % ) Rainrate ( cm )
High9,6 7,3 1,4 SSW ( 1/3 ) 1,6 1025,3 89 -
Average8,8 6,8 0,1 Calm #44/46 0,2 1024,8 87 -
Low8,3 6,4 -   0,0 1024,3 84 -
Daily Tabular details for Saturday 22 September 2018
Time Temp. ( °C ) Dew pt. ( °C ) Wind ( km/h ) from Gust ( km/h ) Pressure ( hPa ) Humid.( % ) Rainrate ( cm )
00:03 9,6 7,0   Calm   1024,3 84 -
00:09 9,5 7,1   Calm   1024,6 85 -
00:13 9,4 7,0   Calm   1024,6 85 -
00:19 9,4 7,0   Calm   1024,6 85 -
00:23 9,4 7,2   Calm 1,6 1024,6 86 -
00:29 9,5 7,3   Calm   1024,6 86 -
00:33 9,5 7,1   Calm   1024,6 85 -
00:39 9,3 6,9   Calm 1,6 1024,6 85 -
00:43 9,2 6,8   Calm   1024,6 85 -
00:49 9,1 6,9   Calm   1024,6 86 -
00:53 8,9 6,7   Calm   1024,6 86 -
00:59 8,9 6,9   Calm   1024,6 87 -
01:03 8,8 6,8   Calm   1024,6 87 -
01:08 8,7 6,7   Calm   1024,6 87 -
01:14 8,5 6,5   Calm   1024,9 87 -
01:18 8,4 6,4   Calm   1024,9 87 -
01:24 8,3 6,4   Calm   1024,9 88 -
01:28 8,4 6,5   Calm   1024,9 88 -
01:34 8,4 6,7   Calm   1024,9 89 -
01:38 8,4 6,7   Calm   1024,9 89 -
01:44 8,5 6,8   Calm   1024,9 89 -
01:48 8,6 6,9   Calm 1,6 1024,9 89 -
01:54 8,7 6,8   Calm   1024,9 88 -
01:58 8,7 6,8   Calm   1024,9 88 -
02:04 8,6 6,7   Calm   1024,9 88 -
02:08 8,6 6,7   Calm   1024,9 88 -
02:14 8,6 6,7   Calm   1024,9 88 -
02:18 8,6 6,7   Calm   1024,9 88 -
02:24 8,7 6,8   Calm 1,6 1024,9 88 -
02:28 8,8 6,9   Calm   1024,9 88 -
02:34 8,8 6,8   Calm   1024,9 87 -
02:38 8,7 6,7   Calm   1025,3 87 -
02:44 8,7 6,8   Calm   1024,9 88 -
02:48 8,7 6,8   Calm   1024,9 88 -
02:54 8,7 6,7   Calm   1024,9 87 -
02:58 8,7 6,7   Calm   1024,9 87 -
03:02 8,6 6,6   Calm   1024,9 87 -
03:09 8,5 6,6   Calm   1024,9 88 -
03:13 8,4 6,5   Calm 1,6 1024,9 88 -
03:19 8,4 6,5   Calm   1024,9 88 -
03:23 8,3 6,4   Calm   1024,9 88 -
03:29 8,3 6,6 1,4 SSW 1,6 1024,6 89 -
03:33 8,4 6,7 1,4 SW 1,6 1024,9 89 -
03:39 8,6 6,7   Calm   1024,9 88 -
03:43 8,6 6,7   Calm   1024,9 88 -
03:49 8,5 6,6   Calm   1024,9 88 -
Daily Summary for Saturday 22 September 2018
Time Temp. ( °C ) Dew pt. ( °C ) Wind ( km/h ) from Gust ( km/h ) Pressure ( hPa ) Humid.( % ) Rainrate ( cm )
High9,6 7,3 1,4 SSW ( 1/3 ) 1,6 1025,3 89 -
Average8,8 6,8 0,1 Calm #44/46 0,2 1024,8 87 -
Low8,3 6,4 -   0,0 1024,3 84 -
Daily Tabular details for Saturday 22 September 2018
Time Temp. ( °C ) Dew pt. ( °C ) Wind ( km/h ) from Gust ( km/h ) Pressure ( hPa ) Humid.( % ) Rainrate ( cm )
00:03 9,6 7,0   Calm   1024,3 84 -
00:09 9,5 7,1   Calm   1024,6 85 -
00:13 9,4 7,0   Calm   1024,6 85 -
00:19 9,4 7,0   Calm   1024,6 85 -
00:23 9,4 7,2   Calm 1,6 1024,6 86 -
00:29 9,5 7,3   Calm   1024,6 86 -
00:33 9,5 7,1   Calm   1024,6 85 -
00:39 9,3 6,9   Calm 1,6 1024,6 85 -
00:43 9,2 6,8   Calm   1024,6 85 -
00:49 9,1 6,9   Calm   1024,6 86 -
00:53 8,9 6,7   Calm   1024,6 86 -
00:59 8,9 6,9   Calm   1024,6 87 -
01:03 8,8 6,8   Calm   1024,6 87 -
01:08 8,7 6,7   Calm   1024,6 87 -
01:14 8,5 6,5   Calm   1024,9 87 -
01:18 8,4 6,4   Calm   1024,9 87 -
01:24 8,3 6,4   Calm   1024,9 88 -
01:28 8,4 6,5   Calm   1024,9 88 -
01:34 8,4 6,7   Calm   1024,9 89 -
01:38 8,4 6,7   Calm   1024,9 89 -
01:44 8,5 6,8   Calm   1024,9 89 -
01:48 8,6 6,9   Calm 1,6 1024,9 89 -
01:54 8,7 6,8   Calm   1024,9 88 -
01:58 8,7 6,8   Calm   1024,9 88 -
02:04 8,6 6,7   Calm   1024,9 88 -
02:08 8,6 6,7   Calm   1024,9 88 -
02:14 8,6 6,7   Calm   1024,9 88 -
02:18 8,6 6,7   Calm   1024,9 88 -
02:24 8,7 6,8   Calm 1,6 1024,9 88 -
02:28 8,8 6,9   Calm   1024,9 88 -
02:34 8,8 6,8   Calm   1024,9 87 -
02:38 8,7 6,7   Calm   1025,3 87 -
02:44 8,7 6,8   Calm   1024,9 88 -
02:48 8,7 6,8   Calm   1024,9 88 -
02:54 8,7 6,7   Calm   1024,9 87 -
02:58 8,7 6,7   Calm   1024,9 87 -
03:02 8,6 6,6   Calm   1024,9 87 -
03:09 8,5 6,6   Calm   1024,9 88 -
03:13 8,4 6,5   Calm 1,6 1024,9 88 -
03:19 8,4 6,5   Calm   1024,9 88 -
03:23 8,3 6,4   Calm   1024,9 88 -
03:29 8,3 6,6 1,4 SSW 1,6 1024,6 89 -
03:33 8,4 6,7 1,4 SW 1,6 1024,9 89 -
03:39 8,6 6,7   Calm   1024,9 88 -
03:43 8,6 6,7   Calm   1024,9 88 -
03:49 8,5 6,6   Calm   1024,9 88 -

Download your copy of this data-set  here

Our weather-data as stored at Weather Underground. Script developed by Jim McMurry. Adapted for the template by Leuven-Template.eu

You find our weather info also at:

Weather Underground

Equipment we use:

Weather-station
Davis Vue

Weather-program
Meteobridge

Weather-server
Raspberry PI 2 B+

Provider
1 and 1

Davis Vue

Meteobridge

Raspberry PI 2 B+

1 and 1